Theta_e
300 300 301 303 301 300 299 299 301 301 301 302 301 302 302 302 302 302 302 302 302 302
301 303 303 304 303 302 300 300 299 300 300 300 301 301 301 301 302 302 302 301 302 301
302 304 304 304 303 303 303 301 300 300 300 300 301 301 301 301 303 302 302 303 303 302
304 304 305 304 304 304 304 304 303 301 301 301 300 301 301 302 303 301 301 302 302 302
303 302 302 302 303 305 304 304 304 304 302 302 302 302 302 301 302 302 301 301 301 302
301 301 301 301 302 304 304 304 304 304 303 302 302 303 304 302 301 301 301 300 301 302
300 301 300 301 302 303 304 303 304 304 303 303 303 304 304 301 299 299 299 299 300 302
301 302 301 301 301 302 304 304 304 304 304 304 304 303 304 301 299 299 298 299 300 304
302 302 301 301 300 301 301 303 304 304 303 302 303 302 304 305 301 301 299 298 298 302
302 301 301 300 301 300 300 302 302 303 304 302 303 302 302 304 303 302 301 300 299 299
302 301 301 300 299 300 300 301 301 302 302 303 303 301 300 302 303 302 302 301 301 300
302 301 300 300 299 299 298 299 300 301 302 301 301 300 299 301 303 301 301 302 302 301
302 301 300 299 299 299 298 299 300 300 301 302 301 298 297 300 303 301 301 303 302 301
301 302 300 300 300 300 299 299 299 300 301 301 301 300 297 297 302 302 301 300 300 301
Wind_Speed
6 4 5 6 6 7 7 7 10 9 8 9 9 9 8 6 6 7 7 8 6 5
6 7 6 7 6 5 5 7 8 8 8 9 8 8 8 5 7 7 6 7 7 5
6 6 7 6 8 9 8 7 8 8 8 9 8 8 8 6 6 7 7 5 7 6
8 8 7 7 7 8 9 9 8 8 8 8 8 8 7 7 6 6 7 8 8 9
6 7 7 7 8 8 8 8 8 8 8 9 8 9 9 9 8 8 9 9 9 9
7 6 7 7 9 8 9 9 9 9 9 9 8 9 9 9 10 9 8 8 7 8
6 6 6 7 8 8 8 8 9 9 9 9 9 9 8 9 9 10 10 9 8 8
5 5 5 7 8 8 8 8 8 9 9 9 8 7 7 6 8 9 11 11 9 9
5 5 5 6 7 7 8 8 8 9 8 9 7 14 14 10 6 9 11 11 10 9
4 5 6 6 6 7 8 6 7 8 9 8 9 16 14 13 6 7 8 10 9 8
4 5 5 5 6 6 6 7 6 7 8 7 7 14 14 12 6 6 7 8 9 8
4 4 4 5 5 5 6 6 6 5 7 8 9 13 13 11 7 6 7 7 8 8
2 2 3 4 5 3 3 5 5 7 7 10 10 10 13 10 6 7 6 7 7 12
3 2 2 3 2 3 3 4 7 7 6 6 8 10 14 12 4 6 5 5 5 5
Wind_Direction
345 327 334 344 346 342 342 340 340 345 345 341 344 340 341 344 349 347 348 345 349 338
329 334 336 343 336 328 332 341 343 344 342 344 346 346 341 343 354 347 345 343 351 347
316 331 340 342 335 329 327 330 338 336 339 341 344 349 351 344 340 350 352 351 349 356
349 347 342 341 329 328 332 341 341 343 343 343 340 344 347 349 348 345 351 355 354 349
343 349 350 345 336 340 341 347 348 348 348 344 348 348 353 351 352 3 1 356 7 352
347 347 347 345 342 346 346 350 355 356 355 350 346 354 358 4 2 5 2 356 4 345
347 348 351 338 347 350 346 351 351 354 354 355 349 3 4 18 8 5 1 359 2 351
345 351 354 349 352 344 352 351 351 358 359 358 7 357 357 13 9 13 8 6 3 5
1 354 354 346 348 358 356 354 0 3 3 7 7 356 6 9 351 2 15 11 1 2
357 1 352 347 351 355 341 340 352 353 355 358 11 1 360 12 13 8 8 11 8 5
353 353 356 358 357 347 341 344 343 344 347 350 359 2 357 354 5 17 14 8 0 10
358 0 2 3 344 336 344 349 339 331 351 357 359 358 354 359 355 4 6 11 11 12
329 7 342 329 327 326 326 333 340 352 354 355 353 351 0 6 0 7 359 7 8 6
344 325 341 324 314 316 341 1 6 352 338 344 347 347 358 2 8 4 356 5 357 360